Regional Weather Roundup
Issued by NWS Kansas City/Pleasant Hill, MO

Home | Current Version | Previous Version | Text Only | Print | Product List | Glossary On
Versions: 1 2 3 4 5 6 7 8 9 10 11 12 13 14 15 16 17 18 19 20 21 22 23 24 25 26 27
000
ASUS43 KEAX 200910
RWREAX

WEATHER ROUNDUP FOR EASTERN KANSAS AND NORTHWEST MISSOURI
NATIONAL WEATHER SERVICE KANSAS CITY/PLEASANT HILL MO
300 AM CST MON NOV 20 2017

KSZ040-057-103>105-MOZ028-029-037-043-201000-
...KANSAS CITY METROPOLITAN AREA...

CITY           SKY/WX    TMP DP  RH WIND       PRES   REMARKS
K.C. INTL      CLOUDY    44  28  53 S17G24    29.98F
K.C. DOWNTOWN  CLOUDY    46  28  49 S13       30.00F
LEES SUMMIT    CLEAR     42  30  62 SW15      30.02F WCI  34
OLATHE - IXD   CLEAR     37  29  72 S9        30.02S WCI  30
OLATHE - OJC   CLOUDY    41  29  62 S9        30.02S
LAWRENCE       CLEAR     46  28  49 S9        29.99F

$$

MOZ001>008-011>017-020>025-030>033-038>040-044>046-053-054-201000-
...NORTHERN AND CENTRAL MISSOURI...

CITY           SKY/WX    TMP DP  RH WIND       PRES   REMARKS
ST. JOSEPH     CLOUDY    44  27  51 S14       29.95F
MOSBY          CLOUDY    41  30  65 SE6       30.01F
WARRENSBURG    CLEAR     37  30  75 S10       30.05S WCI  30
WHITEMAN AFB   CLEAR     39  29  65 SW14      30.01F WCI  31
CLINTON        CLEAR     41  28  60 MISG      30.08F
SEDALIA        CLEAR     42  30  62 S13       30.07F
WARSAW         NOT AVBL
CHILLICOTHE      N/A     41  31  67 S12       29.99F WCI  34
KIRKSVILLE     CLOUDY    40  30  67 S13       29.99F WCI  32

$$

MOZ041-047>049-056>058-063>065-088>090-097-201000-
...EASTERN AND SOUTHERN MISSOURI...

CITY           SKY/WX    TMP DP  RH WIND       PRES   REMARKS
ST. LOUIS INTL CLOUDY    38  22  52 S12       30.13F WCI  30
SPIRIT OF STL  CLOUDY    26  24  92 CALM      30.13F
COLUMBIA       CLOUDY    34  27  75 S9        30.08F WCI  27
JEFFERSON CITY CLOUDY    38  26  62 E6        30.11F WCI  33
ROLLA          CLOUDY    37  25  61 S12       30.13F WCI  29
SPRINGFIELD    CLEAR     36  28  73 S8        30.13S WCI  30
BRANSON        CLEAR     37  25  60 CALM      30.17R
JOPLIN         CLEAR     45  28  51 S14       30.12F
WEST PLAINS    CLOUDY    33  18  53 S3        30.19S

$$

IAZ060-094-KSZ022-034>040-054-083-096-NEZ052-066-093-201000-
...KANSAS...SOUTHEAST NEBRASKA AND IOWA...

CITY           SKY/WX    TMP DP  RH WIND       PRES   REMARKS
TOPEKA         CLOUDY    45  27  49 S10       29.96F
MANHATTAN      CLOUDY    45  24  43 SW10      29.93F
EMPORIA        CLOUDY    38  25  59 S12       29.99F WCI  30
CHANUTE        CLEAR     40  29  64 S12       30.07F WCI  33
WICHITA        PTCLDY    40  26  57 S12       30.00F WCI  33
OMAHA          CLOUDY    36  26  67 S13       29.84F WCI  27
LINCOLN        CLOUDY    35  24  64 SE6       29.85F WCI  30
FALLS CITY     CLOUDY    43  26  51 S10       29.90F
LAMONI         CLOUDY    38  29  70 S13       29.92S WCI  30
DES MOINES     CLOUDY    40  27  59 S12       29.88F WCI  33

$$





USA.gov is the U.S. government's official web portal to all federal, state and local government web resources and services.